FLOCK 3P-62 (42036 NORAD) Tracking and Keplerian Element Data

This shows tracking and keplerian element data for the satellite.

Feedback or suggestion? Click here.




ElementValue
Catalog42036
NameFLOCK 3P-62
Epoch Orbit17653
Epoch Day115.04291418
Epoch Year2020
RAAN184.7635
Inclination97.3688
Eccentricity0.0008582
Argument of Perigee137.72
Mean Anonmoly222.4703
Mean Motion15.27973331
Decay Rate2.844E-05
L11 42036U 17008CS 20115.04291418 .00002844 00000-0 10685-3 0 9990
L22 42036 97.3688 184.7635 0008582 137.7200 222.4703 15.27973331176538



Live tracking and technical data element details for FLOCK 3P-62 (NORAD 42036). FLOCK 3P-62 can be tracked NOW for your location showing map with azimuth and elevation plus other details from your city location.







IsCatalogInMostPopularTable: catalog: 42036, numindb: 580
Update: records affected: 1



GetName: 42036 FLOCK 3P-62

Hit Count: updated at: Thu, 22 May 2025 04:30:34 GMT